This is the latest recevied weather packets stored in our database for station/object NC4J. If no packets are shown the sender has not sent any weather packets the latest 10 day(s).
| Time | Temp. | Humidity | Pressure | Rain* | Wind** | Luminosity | Snow |
|---|---|---|---|---|---|---|---|
| 1777040025 | 17.22° C | 60% | 1016 hPa | 0 mm | - | 61 W/m² | - |
| 1777039721 | 17.22° C | 60% | 1016 hPa | 0 mm | - | 57 W/m² | - |
| 1777039416 | 16.67° C | 62% | 1016.2 hPa | 0 mm | - | 55 W/m² | - |
| 1777039112 | 16.67° C | 62% | 1016 hPa | 0 mm | - | 47 W/m² | - |
| 1777038812 | 16.11° C | 63% | 1016 hPa | 0 mm | - | 57 W/m² | - |
| 1777038508 | 16.11° C | 66% | 1016.1 hPa | 0 mm | - | 86 W/m² | - |
| 1777038207 | 15.56° C | 68% | 1016.1 hPa | 0 mm | - | 57 W/m² | - |
| 1777037903 | 15° C | 69% | 1016 hPa | 0 mm | - | 80 W/m² | - |
| 1777037600 | 15° C | 70% | 1016.1 hPa | 0 mm | - | 174 W/m² | - |
| 1777037296 | 14.44° C | 71% | 1016.1 hPa | 0 mm | - | 48 W/m² | - |
| 1777036993 | 14.44° C | 73% | 1016.3 hPa | 0 mm | - | 42 W/m² | - |
| 1777036690 | 13.89° C | 73% | 1016.1 hPa | 0 mm | - | 40 W/m² | - |
| 1777036390 | 13.89° C | 75% | 1016.2 hPa | 0 mm | - | 39 W/m² | - |
| 1777036086 | 13.33° C | 76% | 1016.4 hPa | 0 mm | - | 38 W/m² | - |
| 1777035781 | 12.78° C | 74% | 1016.4 hPa | 0 mm | - | 37 W/m² | - |
| 1777035478 | 12.78° C | 77% | 1016.5 hPa | 0 mm | - | 36 W/m² | - |
| 1777035177 | 12.22° C | 80% | 1016.5 hPa | 0 mm | - | 35 W/m² | - |
| 1777034874 | 12.22° C | 81% | 1016.5 hPa | 0 mm | - | 35 W/m² | - |
| 1777034572 | 11.67° C | 80% | 1016.5 hPa | 0 mm | - | 62 W/m² | - |
| 1777034268 | 11.11° C | 83% | 1016.5 hPa | 0 mm | - | 58 W/m² | - |
| 1777033964 | 10.56° C | 84% | 1016.5 hPa | 0 mm | - | 65 W/m² | - |
| 1777033660 | 10° C | 86% | 1016.8 hPa | 0 mm | - | 38 W/m² | - |
| 1777033357 | 9.44° C | 89% | 1016.5 hPa | 0 mm | - | 58 W/m² | - |
* Rain latest hour (hover to see other rain measurements)
** Current wind speed in m/s (hover to see current wind gust speed)